Location: Leeds
(37.2390°N, 113.3580°W)
Time: 17:49:04
(UTC-06:00)

SL-08 RB Rocket - Visible Passes

Search period start: 02 September 2015 00:00
Search period end: 12 September 2015 00:00
Orbit: 650 x 685 km, 98.1° (Epoch: 01 September)

Date Brightness Start Highest point End Pass type
(mag) Time Alt. Az. Time Alt. Az. Time Alt. Az.
02 Sep 5.9 22:07:43 15° NE 22:07:43 15° NE 22:09:04 10° NNE visible
02 Sep 6.4 23:45:53 17° NW 23:45:53 17° NW 23:47:04 10° NNW visible
03 Sep 5.7 22:40:10 21° NNE 22:40:10 21° NNE 22:41:56 10° N visible
04 Sep 6.0 23:12:36 21° N 23:12:36 21° N 23:14:09 10° N visible
05 Sep 6.0 22:06:52 13° NE 22:06:52 13° NE 22:07:50 10° NNE visible
05 Sep 6.5 23:45:02 15° NNW 23:45:02 15° NNW 23:45:55 10° NNW visible
06 Sep 5.9 22:39:19 18° NNE 22:39:19 18° NNE 22:40:44 10° N visible
07 Sep 6.2 23:11:45 18° N 23:11:45 18° N 23:12:58 10° N visible
08 Sep 6.1 22:06:02 12° NNE 22:06:02 12° NNE 22:06:36 10° NNE visible
08 Sep 6.7 23:44:12 13° NNW 23:44:12 13° NNW 23:44:45 10° NNW visible
09 Sep 6.1 22:38:28 16° NNE 22:38:28 16° NNE 22:39:31 10° N visible
10 Sep 6.4 23:10:55 15° N 23:10:55 15° N 23:11:47 10° N visible
11 Sep 6.3 22:05:12 11° NNE 22:05:12 11° NNE 22:05:21 10° NNE visible
11 Sep 6.8 23:43:21 11° NNW 23:43:21 11° NNW 23:43:34 10° NNW visible
